This is the latest recevied weather packets stored in our database for station/object N3AVN. If no packets are shown the sender has not sent any weather packets the latest 10 day(s).
| Time | Temp. | Humidity | Pressure | Rain* | Wind** | Luminosity | Snow |
|---|---|---|---|---|---|---|---|
| 1777987422 | 15° C | 84% | 1008.7 hPa | 0 mm | - | 111 W/m² | - |
| 1777987119 | 15° C | 84% | 1008.7 hPa | 0 mm | - | 160 W/m² | - |
| 1777986817 | 14.44° C | 85% | 1008.7 hPa | 0 mm | - | 136 W/m² | - |
| 1777986514 | 14.44° C | 87% | 1009.1 hPa | 0 mm | - | 137 W/m² | - |
| 1777986212 | 14.44° C | 86% | 1008.7 hPa | 0 mm | - | 93 W/m² | - |
| 1777985909 | 14.44° C | 84% | 1008.6 hPa | 0 mm | - | 43 W/m² | - |
| 1777985607 | 15° C | 80% | 1009.2 hPa | 0 mm | - | 65 W/m² | - |
| 1777985304 | 15.56° C | 79% | 1009.3 hPa | 0 mm | - | 141 W/m² | - |
| 1777985001 | 15° C | 80% | 1009.1 hPa | 0 mm | - | 147 W/m² | - |
| 1777984697 | 15° C | 79% | 1008.8 hPa | 0 mm | - | 104 W/m² | - |
| 1777984393 | 15° C | 79% | 1009.1 hPa | 0 mm | - | 113 W/m² | - |
| 1777984089 | 15.56° C | 78% | 1008.8 hPa | 0 mm | - | 274 W/m² | - |
| 1777983787 | 15° C | 80% | 1009.1 hPa | 0 mm | - | 232 W/m² | - |
| 1777983483 | 15° C | 80% | 1009.1 hPa | 0 mm | - | 235 W/m² | - |
| 1777983180 | 14.44° C | 82% | 1009.2 hPa | 0 mm | - | 203 W/m² | - |
| 1777982876 | 13.89° C | 84% | 1009.1 hPa | 0 mm | - | 161 W/m² | - |
| 1777982573 | 13.89° C | 84% | 1009.2 hPa | 0 mm | - | 105 W/m² | - |
| 1777982271 | 13.89° C | 84% | 1008.9 hPa | 0 mm | - | 161 W/m² | - |
| 1777981969 | 13.33° C | 85% | 1009.1 hPa | 0 mm | - | 138 W/m² | - |
| 1777981666 | 13.33° C | 86% | 1009 hPa | 0 mm | - | 100 W/m² | - |
| 1777981361 | 12.78° C | 88% | 1009.2 hPa | 0 mm | - | 103 W/m² | - |
| 1777981059 | 12.78° C | 88% | 1009.4 hPa | 0 mm | - | 55 W/m² | - |
| 1777980756 | 12.22° C | 89% | 1009.3 hPa | 0 mm | - | 114 W/m² | - |
| 1777980451 | 12.22° C | 90% | 1009.1 hPa | 0 mm | - | 83 W/m² | - |
| 1777980150 | 11.67° C | 91% | 1009.1 hPa | 0 mm | - | 91 W/m² | - |
* Rain latest hour (hover to see other rain measurements)
** Current wind speed in m/s (hover to see current wind gust speed)